Location: Niedergestelen
(46.3129°N, 7.7822°E)
Time: 13:49:49
(UTC+00:00)

CZ-4 R/B - Pass Details

Date: 01 December 2020
Orbit: 532 x 598 km, 97.7° (Epoch: 27 January)

Event Time Altitude Azimuth Distance (km) Brightness Sun altitude
Rises 17:34:23 0° 152° (SSE) 2,715 4.7 -18.4°
Enters shadow 17:34:48 - 151° (SSE) 2,542 4.5 -18.5°
Exits shadow 17:40:47 47° 49° (NE) 760 1.6 -19.5°
Drops below altitude 10° 17:44:18 10° 357° (N) 1,890 4.0 -20.1°
Sets 17:46:32 0° 352° (N) 2,805 4.9 -20.4°
